Weather observations for the past three days for
Sleetmute
Imperial (Metric)
Date Time (akdt) Wind (mph) Vis. (mi.) Weather Sky Cond. Temperature (ºF) Relative Humidity Wind Chill (°F) Heat Index (°F) Pressure Precipitation (in)
Air Dwpt 6 hour altimeter (in) sea level (mb) 1 hr 3 hr 6 hr
Max. Min.
22 20:56 Vrbl 3 10.00 Partly Cloudy SCT085 62.1 52 70% 29.9 1011.7
22 19:56 Vrbl 3 10.00 Mostly Cloudy BKN085 62.1 52 70% 29.89 1011.4
22 18:56 Calm 10.00 Mostly Cloudy SCT070 BKN095 62.1 52 70% 29.9 1011.6
22 17:56 Vrbl 5 10.00 Partly Cloudy SCT110 63 52 68% 29.91 1011.8
22 16:56 Vrbl 5 10.00 Partly Cloudy SCT120 64 53.1 68% 29.92 1012.2
22 15:56 Vrbl 5 10.00 Partly Cloudy SCT110 63 53.1 64 57.9 70% 29.93 1012.6
22 14:56 Vrbl 5 10.00 Partly Cloudy SCT100 63 54 73% 29.94 1013.0
22 13:56 Vrbl 3 10.00 Mostly Cloudy FEW022 BKN110 63 53.1 70% 29.94 1013.0
22 12:56 Vrbl 5 10.00 Overcast OVC100 64 54 70% 29.94 1012.9
22 11:56 Vrbl 3 10.00 Partly Cloudy SCT075 SCT100 62.1 54 75% 29.94 1012.8
22 10:56 N 5 10.00 Overcast SCT070 SCT095 OVC120 59 55 87% 29.94 1012.8
22 09:56 Calm 10.00 Mostly Cloudy SCT090 BKN100 57.9 55 57.9 55 90% 29.93 1012.5 0.13
22 08:56 Vrbl 3 10.00 Overcast OVC090 55.9 55 97% 29.93 1012.4
22 07:56 Calm 10.00 Overcast OVC080 55.9 55 97% 29.93 1012.6
22 05:56 Calm 5.00 Heavy Rain Fog/Mist BKN036 BKN047 OVC075 55.9 55 97% 29.93 1012.3 0.1
22 04:56 Calm 8.00 Rain FEW045 BKN060 OVC075 55.9 55 97% 29.92 1012.2 0.02
22 03:56 N 3 10.00 Overcast FEW050 OVC085 57.9 54 68 57.9 87% 29.93 1012.4 0.01
22 02:56 Vrbl 3 10.00 Overcast OVC090 57.9 54 87% 29.92 1012.3 0.01
22 00:56 Calm 2.50 Mostly Cloudy with Haze BKN120 61 52 72% 29.92 1012.4
21 22:56 Calm 10.00 Partly Cloudy SCT070 64.9 51.1 61% 29.91 1012.0
21 20:56 Calm 10.00 Overcast BKN085 OVC110 70 50 49% 29.88 1010.9
21 19:56 Vrbl 3 10.00 Mostly Cloudy BKN065 BKN090 72 51.1 48% 29.87 1010.5
21 17:56 Vrbl 3 8.00 Partly Cloudy SCT065 73 51.1 46% 29.88 1010.8
21 16:56 Calm 10.00 Fair CLR 73 50 44% 29.89 1011.1
21 15:56 Vrbl 3 8.00 Partly Cloudy FEW070 SCT090 72 52 72 60.1 50% 29.9 1011.6
21 14:56 Calm 9.00 Mostly Cloudy FEW055 BKN075 BKN090 71.1 50 47% 29.91 1011.9
21 13:56 Calm 6.00 Mostly Cloudy with Haze FEW043 BKN095 69.1 52 55% 29.92 1012.2
21 12:56 Calm 8.00 Fair CLR 66.9 52 59% 29.93 1012.6
21 11:56 N 6 10.00 Fair CLR 64.9 52 63% 29.93 1012.7
21 10:56 Vrbl 3 10.00 Partly Cloudy SCT023 62.1 53.1 73% 29.94 1012.9
20 11:56 Calm 10.00 Fair CLR 69.1 48 47% 29.96 0.0
20 08:56 Vrbl 3 3.00 Fair with Haze CLR 53.1 46 77% 30.02 1015.6
20 07:56 NE 5 10.00 Fair CLR 48 44.1 86% 47 30.03 1016.1
20 06:56 N 6 6.00 Fog/Mist CLR 46.9 44.1 90% 45 30.05 1016.6
20 05:56 N 5 8.00 Fair CLR 46.9 45 93% 45 30.06 1016.8
20 04:56 Calm 10.00 Mostly Cloudy BKN075 45 45 100% 30.06 1016.9
20 03:56 Calm 10.00 Mostly Cloudy BKN075 46.9 46 59 46.9 97% 30.06 1017.0
20 02:56 Calm 10.00 Fair CLR 48 46.9 96% 30.06 1016.9
20 01:56 Calm 10.00 Fair CLR 50 48.9 96% 30.06 1017.0
20 00:56 Calm 10.00 Fair CLR 52 50 93% 30.06 1017.0
19 23:56 Calm 10.00 A Few Clouds FEW120 54 50 87% 30.05 1016.8
19 22:56 Calm 10.00 Fair CLR 57 48 72% 30.05 1016.5
19 21:56 Calm 10.00 Fair CLR 59 43 63 59 56% 30.04 1016.3
Date Time (akdt) Wind (mph) Vis. (mi.) Weather Sky Cond. Air Dwpt Max. Min. Relative Humidity Wind Chill (°F) Heat Index (°F) altimeter (in) sea level (mb) 1 hr 3 hr 6 hr
6 hour
Temperature (ºF) Pressure Precipitation (in)